Total_Precipitation_Accumulation
1.61 1.66 1.70 1.76 1.89 2.06 2.23 2.32 2.24 2.28 2.33 2.29 2.12 2.05 2.01 1.95 1.96 2.03 2.00 2.05 2.10 2.10 2.10 2.04 1.89 1.79 1.86 1.90 1.94 2.00 2.06 2.19 2.15 1.60 1.35 1.33 1.38 1.35 1.35 1.25 1.16 1.14 1.10
1.64 1.65 1.68 1.70 1.73 1.83 1.92 2.11 2.16 2.22 2.21 2.26 2.19 2.06 1.97 1.89 1.84 1.87 1.85 1.80 1.81 1.85 1.86 1.91 1.86 1.75 1.74 1.77 1.84 1.80 1.75 1.75 1.86 1.69 1.36 1.28 1.24 1.17 1.18 1.20 1.13 1.08 1.01
1.63 1.69 1.68 1.63 1.60 1.63 1.73 1.87 1.94 2.01 2.05 2.08 2.16 2.09 1.95 1.87 1.78 1.74 1.70 1.69 1.66 1.62 1.64 1.72 1.76 1.79 1.77 1.73 1.73 1.71 1.66 1.64 1.70 1.75 1.47 1.27 1.23 1.15 1.15 1.14 1.10 1.07 1.00
1.58 1.68 1.72 1.68 1.62 1.56 1.64 1.74 1.82 1.86 1.91 1.90 1.95 2.04 2.06 2.00 1.89 1.78 1.72 1.67 1.65 1.59 1.56 1.62 1.65 1.65 1.60 1.56 1.60 1.56 1.58 1.65 1.66 1.73 1.64 1.46 1.34 1.23 1.25 1.27 1.24 1.11 1.05
1.48 1.64 1.70 1.74 1.80 1.81 1.73 1.70 1.72 1.75 1.83 1.84 1.84 1.92 1.97 2.02 1.98 1.88 1.80 1.75 1.73 1.70 1.61 1.57 1.59 1.65 1.58 1.53 1.54 1.55 1.59 1.69 1.76 1.81 1.71 1.53 1.40 1.34 1.27 1.16 1.21 1.20 1.14
1.30 1.45 1.54 1.64 1.77 1.92 1.94 1.87 1.81 1.76 1.78 1.85 1.85 1.89 1.91 1.93 2.15 2.12 1.93 1.85 1.78 1.68 1.58 1.46 1.47 1.58 1.57 1.59 1.57 1.56 1.64 1.79 1.88 1.90 1.77 1.54 1.27 1.18 1.22 1.35 1.46 1.62 1.57
1.17 1.22 1.34 1.51 1.61 1.74 1.93 2.03 1.95 1.89 1.92 1.94 1.97 2.00 1.99 2.06 2.17 2.01 1.95 1.78 1.72 1.60 1.46 1.37 1.33 1.32 1.42 1.33 1.40 1.48 1.50 1.61 1.70 1.72 1.66 1.35 1.18 1.14 1.38 1.62 1.64 1.66 1.48
1.16 1.22 1.33 1.43 1.52 1.66 1.85 2.01 2.08 2.06 2.11 2.10 2.08 2.08 2.06 2.05 2.10 1.96 1.93 1.73 1.63 1.49 1.37 1.26 1.23 1.20 1.24 1.35 1.45 1.53 1.42 1.33 1.30 1.25 1.23 1.17 1.15 1.24 1.52 1.82 1.97 2.03 1.76
1.11 1.18 1.26 1.38 1.47 1.58 1.75 1.90 2.00 2.06 2.12 2.15 2.03 1.95 1.87 1.86 1.91 1.79 1.79 1.69 1.67 1.53 1.40 1.32 1.27 1.20 1.33 1.55 1.64 1.65 1.47 1.27 1.24 1.27 1.33 1.34 1.42 1.51 1.63 1.97 2.25 2.41 2.16
1.12 1.15 1.17 1.28 1.40 1.49 1.61 1.75 1.89 1.97 1.99 1.95 1.88 1.78 1.69 1.65 1.76 1.66 1.67 1.68 1.70 1.56 1.45 1.39 1.46 1.38 1.49 1.63 1.60 1.63 1.53 1.28 1.19 1.18 1.21 1.24 1.18 1.22 1.45 1.63 2.09 2.59 2.30
1.13 1.16 1.17 1.22 1.34 1.43 1.44 1.50 1.61 1.69 1.70 1.68 1.60 1.59 1.57 1.57 1.62 1.55 1.54 1.57 1.63 1.62 1.56 1.45 1.41 1.61 1.68 1.71 1.61 1.42 1.42 1.46 1.36 1.28 1.25 1.24 1.22 1.20 1.21 1.24 1.53 2.28 2.66
1.12 1.15 1.20 1.24 1.28 1.33 1.33 1.32 1.34 1.40 1.47 1.51 1.43 1.41 1.46 1.51 1.54 1.56 1.59 1.62 1.66 1.60 1.50 1.35 1.38 1.65 1.66 1.62 1.51 1.51 1.62 1.57 1.40 1.43 1.43 1.38 1.32 1.28 1.26 1.27 1.32 1.51 1.86
1.15 1.17 1.19 1.20 1.24 1.29 1.31 1.29 1.30 1.35 1.40 1.47 1.39 1.35 1.34 1.33 1.41 1.58 1.59 1.64 1.67 1.55 1.47 1.53 1.56 1.60 1.55 1.50 1.56 1.57 1.52 1.43 1.50 1.62 1.52 1.37 1.28 1.29 1.33 1.40 1.43 1.43 1.52
1.13 1.16 1.18 1.15 1.19 1.24 1.28 1.29 1.34 1.41 1.40 1.39 1.34 1.29 1.25 1.21 1.19 1.30 1.47 1.54 1.60 1.57 1.58 1.61 1.57 1.52 1.51 1.52 1.60 1.58 1.45 1.46 1.63 1.67 1.53 1.41 1.38 1.44 1.47 1.52 1.70 1.73 1.85
1.05 1.08 1.11 1.13 1.18 1.26 1.30 1.35 1.41 1.44 1.50 1.52 1.39 1.28 1.28 1.28 1.26 1.40 1.50 1.50 1.58 1.66 1.67 1.57 1.50 1.48 1.50 1.47 1.42 1.42 1.46 1.56 1.65 1.57 1.59 1.60 1.60 1.69 1.74 1.78 1.95 2.05 2.10
1.03 1.03 1.08 1.10 1.17 1.23 1.28 1.36 1.47 1.48 1.48 1.48 1.47 1.38 1.30 1.33 1.39 1.44 1.47 1.55 1.66 1.74 1.69 1.60 1.50 1.42 1.40 1.40 1.38 1.38 1.41 1.48 1.59 1.71 1.76 1.77 1.81 1.90 1.98 2.01 2.15 2.27 2.15
1.02 1.05 1.09 1.11 1.16 1.22 1.20 1.22 1.33 1.38 1.36 1.37 1.41 1.39 1.36 1.36 1.36 1.40 1.48 1.54 1.54 1.56 1.52 1.46 1.41 1.36 1.33 1.32 1.36 1.41 1.43 1.42 1.58 1.82 1.96 2.00 2.06 2.11 2.18 2.24 2.25 2.25 2.07
0.93 1.01 1.03 1.07 1.15 1.18 1.20 1.20 1.18 1.20 1.25 1.28 1.32 1.33 1.33 1.34 1.33 1.37 1.47 1.50 1.50 1.45 1.37 1.34 1.32 1.30 1.33 1.37 1.42 1.50 1.56 1.57 1.69 1.87 1.98 2.04 2.16 2.31 2.35 2.27 2.16 2.10 2.00
0.83 0.90 0.94 0.98 1.05 1.12 1.15 1.18 1.17 1.14 1.14 1.15 1.15 1.24 1.32 1.33 1.33 1.38 1.42 1.38 1.41 1.38 1.32 1.29 1.27 1.31 1.39 1.45 1.49 1.56 1.68 1.81 1.89 2.06 2.12 2.12 2.19 2.41 2.41 2.18 2.03 1.95 1.89
0.79 0.87 0.90 0.92 0.96 1.02 1.05 1.10 1.14 1.11 1.08 1.06 1.09 1.16 1.22 1.28 1.28 1.29 1.32 1.35 1.38 1.39 1.36 1.36 1.34 1.36 1.45 1.53 1.58 1.68 1.81 1.87 1.96 2.09 2.14 2.16 2.21 2.33 2.30 2.04 1.88 1.86 1.76
0.74 0.79 0.84 0.84 0.89 0.96 1.02 1.07 1.11 1.12 1.08 1.04 1.07 1.19 1.36 1.38 1.31 1.25 1.29 1.32 1.37 1.41 1.44 1.48 1.48 1.49 1.53 1.61 1.69 1.74 1.85 1.91 1.98 2.14 2.17 2.12 2.11 2.08 1.90 1.83 1.78 1.77 1.79
0.68 0.72 0.75 0.79 0.84 0.92 1.00 1.04 1.06 1.08 1.06 1.03 1.04 1.13 1.25 1.18 1.13 1.15 1.22 1.24 1.24 1.29 1.37 1.50 1.54 1.54 1.67 1.88 2.06 2.14 2.05 1.96 1.97 2.14 2.18 2.04 1.95 1.87 1.83 1.87 1.83 1.81 1.82
0.63 0.66 0.69 0.73 0.79 0.88 0.93 0.93 0.97 1.01 1.03 1.02 1.01 1.03 1.07 1.09 1.07 1.09 1.12 1.14 1.14 1.17 1.21 1.33 1.45 1.44 1.49 1.76 2.07 2.46 2.59 2.33 2.19 2.29 2.39 2.22 1.98 1.89 1.94 1.96 1.86 1.83 1.78
0.59 0.63 0.66 0.70 0.74 0.79 0.84 0.88 0.92 0.97 0.99 0.99 0.96 0.96 1.00 1.04 1.04 1.03 1.04 1.06 1.08 1.08 1.11 1.22 1.35 1.38 1.41 1.65 1.90 2.10 2.29 2.45 2.65 2.66 2.59 2.57 2.28 2.01 1.98 1.96 1.82 1.72 1.71
0.59 0.61 0.64 0.68 0.72 0.76 0.79 0.82 0.86 0.89 0.93 0.94 0.94 0.94 0.94 0.95 0.97 0.97 0.99 1.01 1.02 1.01 0.98 1.06 1.24 1.36 1.43 1.57 1.76 1.92 2.07 2.25 2.43 2.52 2.49 2.43 2.23 1.99 1.95 1.93 1.81 1.72 1.69
0.57 0.59 0.62 0.65 0.68 0.70 0.74 0.77 0.80 0.83 0.88 0.91 0.92 0.93 0.93 0.93 0.94 0.95 0.97 0.99 1.01 0.98 0.94 0.96 1.05 1.20 1.34 1.48 1.58 1.75 1.91 1.89 1.77 1.76 2.03 2.21 2.11 1.91 1.88 1.96 1.84 1.78 1.75